Location: Oshawa
(43.9000°N, 78.8670°W)
Time: 00:20:15
(UTC-05:00)

Amateur Radio Satellites - All Passes

Search period start: 27 February 2015 23:50
Search period end: 28 February 2015 23:50
Location: Oshawa, 43.9000°N, 78.8670°W

Satellite Date Start Highest point End Downlink Frequencies (MHz)
Time Altitude Azimuth
ANTELSAT 27 Feb 23:57:38 00:01:15 26° 292° (WNW) 00:04:49 437.575/2403.000
BEESAT 27 Feb 23:58:29 00:02:13 24° 65° (ENE) 00:06:04 436.000
TISAT 1 28 Feb 00:05:39 00:09:50 51° 260° (W) 00:14:03 437.305
PCSat 28 Feb 00:13:14 00:15:25 12° 330° (NNW) 00:17:26 145.827
QB50P1 28 Feb 00:18:35 00:22:12 27° 292° (WNW) 00:25:43 145.935-145.965
QB50P2 28 Feb 00:21:19 00:24:51 25° 292° (WNW) 00:28:16 145.880/145.840
ITUPSAT 1 28 Feb 00:22:57 00:27:22 39° 69° (ENE) 00:31:51 437.325
DANDE 28 Feb 00:23:28 00:30:34 60° 98° (E) 00:36:00 436.750
PHONESAT 2.4 28 Feb 00:25:52 00:28:41 21° 204° (SSW) 00:31:27 2401.200-2431.200
DUCHIFAT 1 28 Feb 00:39:53 00:42:45 17° 295° (WNW) 00:45:29 145.980
BUGSAT 1 28 Feb 00:46:36 00:49:35 19° 295° (WNW) 00:52:26 437.445
BEESAT 3 28 Feb 00:57:05 00:58:01 11° 31° (NNE) 00:59:04 437.485
POLYITAN 1 28 Feb 00:57:16 00:58:59 12° 298° (WNW) 01:00:31 437.675
POPSAT HIP 1 28 Feb 00:59:38 01:01:10 12° 299° (WNW) 01:02:31 437.405
KKS-1 28 Feb 01:02:33 01:05:47 20° 65° (ENE) 01:09:08 437.445
CUSAT 1 28 Feb 01:13:06 01:19:28 47° 283° (WNW) 01:24:19 437.405
STARS 28 Feb 01:16:35 01:19:36 19° 65° (ENE) 01:22:45 437.465
BEESAT 2 28 Feb 01:18:07 01:20:12 14° 34° (NE) 01:22:23 435.950
SO-50 28 Feb 01:21:48 01:23:47 13° 109° (ESE) 01:26:02 436.795
SWISSCUBE 28 Feb 01:25:59 01:30:36 47° 261° (W) 01:35:14 437.505
BEESAT 28 Feb 01:35:22 01:39:52 41° 262° (W) 01:44:24 436.000
ITAMSAT 1 28 Feb 01:35:31 01:39:05 19° 90° (E) 01:42:49 435.822/435.867
RS-15 28 Feb 01:42:59 01:53:37 53° 318° (NW) 02:04:25 29.354- 29.394
Oscar 19 28 Feb 01:43:17 01:48:24 64° 101° (ESE) 01:53:29 437.125/150
YUBILEINY 28 Feb 01:46:36 01:52:04 18° 56° (NE) 01:57:57 435.215
ITUPSAT 1 28 Feb 02:01:30 02:05:25 24° 267° (W) 02:09:17 437.325
DANDE 28 Feb 02:08:42 02:14:05 23° 290° (WNW) 02:18:21 436.750
Gurwin Techsat 1B 28 Feb 02:27:43 02:32:47 43° 98° (E) 02:37:50 435.225
BEESAT 3 28 Feb 02:32:59 02:37:05 56° 52° (NE) 02:41:06 437.485
AIST 2 28 Feb 02:35:06 02:38:39 25° 43° (NE) 02:42:10 435.215
KKS-1 28 Feb 02:37:52 02:42:11 44° 262° (W) 02:46:28 437.445
AO-7 28 Feb 02:42:53 02:46:18 13° 84° (E) 02:50:20 29.400- 29.500
M-CUBED/EXP-1 PRIME 28 Feb 02:44:11 02:46:48 22° 63° (ENE) 02:49:32 437.505
AUBIESAT-1 28 Feb 02:48:49 02:51:27 23° 63° (ENE) 02:54:12 437.475
STARS 28 Feb 02:51:29 02:55:47 48° 261° (W) 03:00:05 437.465
HORYU 2 28 Feb 02:54:03 02:57:12 19° 92° (E) 03:00:30 437.375
BEESAT 2 28 Feb 02:54:56 02:59:08 80° 55° (NE) 03:03:15 435.950
SO-50 28 Feb 02:59:06 03:03:44 80° 307° (NW) 03:08:32 436.795
ITAMSAT 1 28 Feb 03:13:54 03:19:03 58° 289° (WNW) 03:24:09 435.822/435.867
Oscar 19 28 Feb 03:23:48 03:27:18 18° 298° (WNW) 03:30:39 437.125/150
MOZHAYETS 4 28 Feb 03:27:07 03:31:04 31° 68° (ENE) 03:35:06
YUBILEINY 28 Feb 03:41:48 03:50:42 79° 80° (E) 03:59:33 435.215
RS-15 28 Feb 04:00:26 04:09:21 26° 350° (N) 04:18:25 29.354- 29.394
Gurwin Techsat 1B 28 Feb 04:08:07 04:12:36 27° 295° (WNW) 04:16:58 435.225
BEESAT 3 28 Feb 04:12:15 04:14:47 16° 249° (WSW) 04:17:09 437.485
AIST 2 28 Feb 04:13:22 04:17:27 43° 242° (WSW) 04:21:25 435.215
JAS-2 28 Feb 04:16:32 04:23:32 48° 97° (E) 04:31:03 435.910
M-CUBED/EXP-1 PRIME 28 Feb 04:19:12 04:21:47 21° 261° (W) 04:24:22 437.505
AUBIESAT-1 28 Feb 04:23:47 04:26:22 21° 261° (W) 04:28:58 437.475
HORYU 2 28 Feb 04:29:54 04:34:07 42° 289° (WNW) 04:38:19 437.375
AO-7 28 Feb 04:32:31 04:40:50 71° 105° (ESE) 04:49:07 29.400- 29.500
BEESAT 2 28 Feb 04:35:40 04:36:45 11° 251° (WSW) 04:37:36 435.950
SO-50 28 Feb 04:42:06 04:45:07 16° 327° (NNW) 04:48:06 436.795
MOZHAYETS 4 28 Feb 05:04:21 05:08:19 28° 266° (W) 05:12:15
CUBESAT XI-V 28 Feb 05:17:11 05:21:23 34° 69° (ENE) 05:25:40 437.345
PCSat 28 Feb 05:28:37 05:33:27 32° 47° (NE) 05:38:18 145.827
YUBILEINY 28 Feb 05:40:02 05:46:40 23° 280° (W) 05:52:55 435.215
PRISM 28 Feb 05:41:10 05:45:16 65° 74° (ENE) 05:49:25 437.425
STRAND 1 28 Feb 05:47:51 05:52:44 47° 70° (ENE) 05:57:42 437.568
JAS-2 28 Feb 06:01:51 06:08:29 40° 293° (WNW) 06:15:28 435.910
RS-15 28 Feb 06:16:37 06:26:16 32° 24° (NNE) 06:36:26 29.354- 29.394
Cubesat XI-IV 28 Feb 06:17:23 06:22:35 48° 99° (E) 06:27:46 437.490
AO-7 28 Feb 06:26:07 06:33:04 30° 305° (NW) 06:39:50 29.400- 29.500
CUTE-I 28 Feb 06:27:13 06:32:31 58° 100° (E) 06:37:48 437.470
AIST 1 28 Feb 06:53:18 06:56:45 24° 89° (E) 07:00:19
CUBESAT XI-V 28 Feb 06:54:54 06:58:54 27° 267° (W) 07:02:51 437.345
PCSat 28 Feb 07:11:52 07:17:02 44° 246° (WSW) 07:22:08 145.827
PRISM 28 Feb 07:19:50 07:21:18 11° 272° (W) 07:22:33 437.425
STRAND 1 28 Feb 07:28:08 07:32:13 23° 268° (W) 07:36:13 437.568
GONETS M04 28 Feb 07:54:12 08:01:00 25° 62° (ENE) 08:08:05
Cubesat XI-IV 28 Feb 07:58:03 08:02:26 25° 296° (WNW) 08:06:42 437.490
BRITE-PL 28 Feb 08:00:54 08:04:32 23° 91° (E) 08:08:05 437.365/2234.400
CUTE-I 28 Feb 08:08:11 08:12:13 22° 298° (WNW) 08:16:07 437.470
CANX-2 28 Feb 08:09:08 08:12:02 18° 91° (E) 08:15:03 2200.000
SEEDS 28 Feb 08:11:02 08:13:18 15° 89° (E) 08:15:46 437.485
GOMX 1 28 Feb 08:20:25 08:23:58 23° 92° (E) 08:27:26 467.674
CUTE 1.7 + AOD 2 28 Feb 08:27:42 08:31:15 26° 94° (E) 08:34:51 437.475
RS-15 28 Feb 08:29:31 08:40:56 76° 52° (NE) 08:52:54 29.354- 29.394
AIST 1 28 Feb 08:30:27 08:34:19 30° 287° (WNW) 08:38:13
UNISAT 6 28 Feb 08:44:40 08:46:57 14° 63° (ENE) 08:49:23 437.425
HO-68 28 Feb 08:53:40 09:00:42 55° 101° (E) 09:07:45 435.675
Oscar 11 28 Feb 08:54:29 08:57:00 15° 89° (E) 08:59:40 145.826/435.025
NANOSAT C BR1 28 Feb 09:06:44 09:08:45 14° 63° (ENE) 09:10:57 145.865
DOVE 4 28 Feb 09:08:18 09:12:34 51° 99° (E) 09:16:39 437.250
TIGRISAT 28 Feb 09:09:46 09:13:18 24° 68° (ENE) 09:16:51 435.000
DELFI C3 28 Feb 09:12:04 09:14:52 18° 91° (E) 09:17:47 145.870
DX 1 28 Feb 09:14:41 09:16:11 12° 88° (E) 09:17:56 434.975-435.025
ANTELSAT 28 Feb 09:21:19 09:25:14 32° 69° (ENE) 09:29:08 437.575/2403.000
AAUSAT CUBESAT 2 28 Feb 09:21:50 09:25:59 62° 101° (E) 09:30:08 437.432
COMPASS 1 28 Feb 09:22:07 09:26:20 73° 102° (ESE) 09:30:31 437.405
FUNcube-1 28 Feb 09:32:53 09:35:48 19° 92° (E) 09:38:49 145.935
ZACube-1 28 Feb 09:33:02 09:36:00 19° 92° (E) 09:39:04 437.345
QB50P1 28 Feb 09:37:02 09:40:37 27° 68° (ENE) 09:44:16 145.935-145.965
CINEMA 3 28 Feb 09:37:13 09:41:23 56° 100° (E) 09:45:27 145.822/145.860
BRITE-PL 28 Feb 09:38:57 09:43:17 36° 291° (WNW) 09:47:18 437.365/2234.400
QB50P2 28 Feb 09:39:44 09:43:25 29° 69° (ENE) 09:47:10 145.880/145.840
CANX-2 28 Feb 09:44:12 09:48:12 41° 289° (WNW) 09:52:13 2200.000
UWE-3 28 Feb 09:45:17 09:49:00 31° 96° (E) 09:52:44 435.000/436.395/437.385
SEEDS 28 Feb 09:45:24 09:49:30 52° 287° (WNW) 09:53:37 437.485
UKube-1 28 Feb 09:46:15 09:49:47 25° 94° (E) 09:53:23 .
O/OREOS (USA 219) 28 Feb 09:47:12 09:51:35 50° 109° (ESE) 09:56:03 437.305
SO-50 28 Feb 09:49:22 09:53:20 24° 39° (NE) 09:57:23 436.795
GONETS M04 28 Feb 09:50:11 09:58:55 77° 265° (W) 10:07:40
DUCHIFAT 1 28 Feb 09:56:57 10:00:59 42° 71° (ENE) 10:05:03 145.980
GOMX 1 28 Feb 09:58:11 10:02:16 33° 291° (WNW) 10:06:04 467.674
HUMSAT D 28 Feb 09:58:32 10:01:27 19° 92° (E) 10:04:29 437.325/437.525
BUGSAT 1 28 Feb 10:01:46 10:05:40 36° 70° (ENE) 10:09:38 437.445
CUTE 1.7 + AOD 2 28 Feb 10:03:29 10:07:12 29° 291° (WNW) 10:10:51 437.475
ISS 28 Feb 10:12:17 10:15:25 49° 142° (SE) 10:18:33 145.825
POLYITAN 1 28 Feb 10:13:36 10:17:52 66° 75° (ENE) 10:22:09 437.675
POPSAT HIP 1 28 Feb 10:15:34 10:19:50 68° 75° (ENE) 10:24:07 437.405
CUBEBUG 2 28 Feb 10:16:35 10:20:46 86° 103° (ESE) 10:24:55 437.445
UNISAT 6 28 Feb 10:18:56 10:23:20 63° 258° (WSW) 10:27:40 437.425
50 SAT 28 Feb 10:24:21 10:27:37 25° 94° (E) 10:30:56 437.505
Oscar 11 28 Feb 10:29:20 10:33:33 51° 287° (WNW) 10:37:44 145.826/435.025
AISAT 28 Feb 10:39:12 10:43:23 39° 97° (E) 10:47:34 437.250
NANOSAT C BR1 28 Feb 10:39:53 10:44:10 66° 259° (WSW) 10:48:26 145.865
HO-68 28 Feb 10:41:54 10:48:10 33° 299° (WNW) 10:54:18 435.675
RS-15 28 Feb 10:42:44 10:52:37 33° 253° (WSW) 11:02:29 29.354- 29.394
TIGRISAT 28 Feb 10:45:54 10:49:58 33° 264° (W) 10:53:55 435.000
DELFI C3 28 Feb 10:46:28 10:50:17 38° 289° (WNW) 10:54:04 145.870
DOVE 4 28 Feb 10:47:15 10:49:57 16° 297° (WNW) 10:52:28 437.250
DX 1 28 Feb 10:48:38 10:53:01 69° 287° (WNW) 10:57:20 434.975-435.025
VELOX 1 28 Feb 10:49:59 10:54:20 50° 99° (E) 10:58:39 145.980
CUBEBUG 1 28 Feb 10:52:48 10:56:23 24° 93° (E) 11:00:00 437.445
ESTCUBE 1 28 Feb 10:55:18 10:59:15 29° 95° (E) 11:03:14 437.505/2401.250
ANTELSAT 28 Feb 10:58:25 11:02:06 25° 266° (W) 11:05:40 437.575/2403.000
AAUSAT CUBESAT 2 28 Feb 10:59:05 11:01:12 13° 296° (WNW) 11:03:10 437.432
COMPASS 1 28 Feb 10:59:54 11:01:32 12° 297° (WNW) 11:02:59 437.405
DANDE 28 Feb 11:06:11 11:08:38 25° 72° (ENE) 11:10:54 436.750
FUNcube-1 28 Feb 11:08:29 11:12:21 37° 289° (WNW) 11:16:11 145.935
ZACube-1 28 Feb 11:08:43 11:12:35 37° 289° (WNW) 11:16:23 437.345
QB50P1 28 Feb 11:12:40 11:16:27 29° 265° (W) 11:20:12 145.935-145.965
QB50P2 28 Feb 11:15:39 11:19:20 27° 265° (W) 11:22:59 145.880/145.840
CINEMA 3 28 Feb 11:15:52 11:18:11 14° 297° (WNW) 11:20:20 145.822/145.860
UKube-1 28 Feb 11:22:07 11:26:01 32° 291° (WNW) 11:29:52 .
UWE-3 28 Feb 11:22:07 11:25:27 23° 292° (WNW) 11:28:41 435.000/436.395/437.385
Oscar 19 28 Feb 11:25:04 11:27:54 15° 60° (ENE) 11:30:54 437.125/150
O/OREOS (USA 219) 28 Feb 11:27:54 11:31:21 20° 308° (NW) 11:34:43 437.305
SO-50 28 Feb 11:29:25 11:34:19 62° 239° (WSW) 11:39:10 436.795
HUMSAT D 28 Feb 11:33:37 11:37:25 36° 289° (WNW) 11:41:11 437.325/437.525
DUCHIFAT 1 28 Feb 11:34:00 11:37:04 18° 269° (W) 11:40:01 145.980
SPROUT 28 Feb 11:36:15 11:39:10 18° 91° (E) 11:42:12 437.525
BUGSAT 1 28 Feb 11:37:58 11:41:18 21° 267° (W) 11:44:33 437.445
ISS 28 Feb 11:49:00 11:51:57 31° 341° (NNW) 11:54:55 145.825
GONETS M04 28 Feb 11:49:40 11:54:27 15° 284° (WNW) 11:58:40
TISAT 1 28 Feb 11:49:41 11:52:59 22° 93° (E) 11:56:21 437.305
CUSAT 1 28 Feb 11:51:53 11:54:22 32° 264° (W) 11:56:43 437.405
POLYITAN 1 28 Feb 11:52:35 11:54:20 12° 272° (W) 11:55:51 437.675
POPSAT HIP 1 28 Feb 11:54:41 11:56:17 11° 273° (W) 11:57:39 437.405
50 SAT 28 Feb 11:59:18 12:02:37 26° 291° (WNW) 12:05:54 437.505
Gurwin Techsat 1B 28 Feb 12:14:29 12:16:14 12° 57° (ENE) 12:18:15 435.225
AISAT 28 Feb 12:16:20 12:19:48 22° 295° (WNW) 12:23:09 437.250
VELOX 1 28 Feb 12:27:30 12:30:34 18° 296° (WNW) 12:33:31 145.980
CUBEBUG 1 28 Feb 12:28:50 12:32:51 34° 291° (WNW) 12:36:47 437.445
ESTCUBE 1 28 Feb 12:32:07 12:36:08 30° 292° (WNW) 12:40:05 437.505/2401.250
ITAMSAT 1 28 Feb 12:54:30 12:59:08 34° 67° (ENE) 13:03:50 435.822/435.867
Oscar 19 28 Feb 13:01:32 13:06:41 78° 258° (WSW) 13:11:51 437.125/150
SPROUT 28 Feb 13:11:26 13:15:32 42° 289° (WNW) 13:19:34 437.525
SWISSCUBE 28 Feb 13:24:55 13:29:26 39° 97° (E) 13:33:58 437.505
TISAT 1 28 Feb 13:25:03 13:28:55 34° 290° (WNW) 13:32:41 437.305
ISS 28 Feb 13:26:34 13:29:03 20° 1° (N) 13:31:33 145.825
BEESAT 28 Feb 13:34:00 13:38:36 45° 98° (E) 13:43:13 436.000
AO-7 28 Feb 13:42:36 13:49:02 27° 53° (NE) 13:55:42 29.400- 29.500
Gurwin Techsat 1B 28 Feb 13:50:07 13:55:25 77° 75° (ENE) 14:00:46 435.225
HORYU 2 28 Feb 13:54:00 13:57:24 22° 66° (ENE) 14:00:53 437.375
ITUPSAT 1 28 Feb 13:59:33 14:04:24 79° 102° (ESE) 14:09:14 437.325
KKS-1 28 Feb 14:27:47 14:31:44 31° 96° (E) 14:35:42 437.445
JAS-2 28 Feb 14:32:38 14:36:34 21° 59° (ENE) 14:40:57 435.910
ITAMSAT 1 28 Feb 14:33:55 14:38:38 33° 264° (W) 14:43:20 435.822/435.867
STARS 28 Feb 14:40:17 14:44:02 27° 95° (E) 14:47:48 437.465
YUBILEINY 28 Feb 14:51:51 14:56:56 18° 78° (ENE) 15:02:30 435.215
ISS 28 Feb 15:03:06 15:06:07 35° 21° (NNE) 15:09:09 145.825
SWISSCUBE 28 Feb 15:03:11 15:07:08 25° 294° (WNW) 15:11:00 437.505
BEESAT 28 Feb 15:12:28 15:16:13 22° 295° (WNW) 15:19:51 436.000
HORYU 2 28 Feb 15:29:43 15:33:53 38° 263° (W) 15:38:02 437.375
AO-7 28 Feb 15:32:43 15:41:06 81° 253° (WSW) 15:49:29 29.400- 29.500
Gurwin Techsat 1B 28 Feb 15:33:08 15:36:06 14° 273° (W) 15:38:49 435.225
ITUPSAT 1 28 Feb 15:39:11 15:41:45 14° 300° (WNW) 15:44:06 437.325
M-CUBED/EXP-1 PRIME 28 Feb 15:58:16 16:01:15 19° 99° (E) 16:04:31 437.505
AUBIESAT-1 28 Feb 16:02:25 16:05:23 19° 98° (E) 16:08:38 437.475
Cubesat XI-IV 28 Feb 16:04:11 16:06:45 14° 58° (ENE) 16:09:34 437.490
KKS-1 28 Feb 16:04:33 16:08:19 27° 293° (WNW) 16:12:00 437.445
CUTE-I 28 Feb 16:13:13 16:16:23 17° 60° (ENE) 16:19:45 437.470
JAS-2 28 Feb 16:15:43 16:21:04 65° 259° (W) 16:27:05 435.910
STARS 28 Feb 16:16:39 16:20:30 29° 292° (WNW) 16:24:16 437.465
ISS 28 Feb 16:39:31 16:42:37 40° 218° (SW) 16:45:40 145.825
YUBILEINY 28 Feb 16:43:51 16:52:35 86° 97° (E) 17:01:26 435.215
BEESAT 2 28 Feb 16:54:09 16:54:49 10° 109° (ESE) 16:55:43 435.950
MOZHAYETS 4 28 Feb 16:57:15 17:01:51 61° 100° (E) 17:06:27
AO-7 28 Feb 17:30:11 17:35:22 17° 274° (W) 17:40:02 29.400- 29.500
M-CUBED/EXP-1 PRIME 28 Feb 17:32:25 17:36:20 44° 293° (WNW) 17:40:33 437.505
AUBIESAT-1 28 Feb 17:36:29 17:40:25 44° 293° (WNW) 17:44:38 437.475
Cubesat XI-IV 28 Feb 17:40:47 17:46:09 88° 81° (E) 17:51:35 437.490
HO-68 28 Feb 17:43:24 17:44:07 10° 45° (NE) 17:45:16 435.675
CUTE-I 28 Feb 17:50:31 17:55:53 78° 256° (WSW) 18:01:19 437.470
STRAND 1 28 Feb 17:58:35 18:01:06 14° 87° (E) 18:03:53 437.568
BEESAT 3 28 Feb 18:05:32 18:09:37 69° 122° (ESE) 18:13:45 437.485
AIST 2 28 Feb 18:12:54 18:16:31 28° 115° (ESE) 18:20:14 435.215
O/OREOS (USA 219) 28 Feb 18:17:29 18:20:21 16° 49° (NE) 18:23:22 437.305
BEESAT 2 28 Feb 18:28:18 18:32:26 81° 304° (NW) 18:36:39 435.950
AIST 1 28 Feb 18:35:34 18:40:00 75° 80° (E) 18:44:24
MOZHAYETS 4 28 Feb 18:35:45 18:38:40 16° 297° (WNW) 18:41:25
YUBILEINY 28 Feb 18:44:07 18:50:47 22° 301° (WNW) 18:57:09 435.215
CUBESAT XI-V 28 Feb 18:49:21 18:54:05 70° 102° (ESE) 18:58:46 437.345
PHONESAT 2.4 28 Feb 18:54:40 18:57:01 17° 153° (SSE) 18:59:25 2401.200-2431.200
PRISM 28 Feb 18:57:50 19:02:06 90° 167° (SSE) 19:06:19 437.425
CANX-2 28 Feb 19:04:13 19:06:51 17° 65° (ENE) 19:09:37 2200.000
SEEDS 28 Feb 19:05:33 19:07:30 13° 63° (ENE) 19:09:37 437.485
VERMONT LUNAR 28 Feb 19:06:49 19:09:51 28° 162° (SSE) 19:12:54 437.305
BRITE-PL 28 Feb 19:11:39 19:16:47 37° 70° (ENE) 19:21:48 437.365/2234.400
CUTE 1.7 + AOD 2 28 Feb 19:22:25 19:25:43 23° 67° (ENE) 19:29:06 437.475
HO-68 28 Feb 19:23:34 19:30:18 47° 65° (ENE) 19:37:07 435.675
Cubesat XI-IV 28 Feb 19:24:47 19:27:07 12° 274° (W) 19:29:08 437.490
GOMX 1 28 Feb 19:28:47 19:33:39 36° 70° (ENE) 19:38:22 467.674
STRAND 1 28 Feb 19:35:49 19:41:00 76° 285° (WNW) 19:46:07 437.568
CUBEBUG 2 28 Feb 19:44:11 19:44:18 10° 61° (ENE) 19:44:39 437.445
BEESAT 3 28 Feb 19:45:20 19:48:11 17° 322° (NW) 19:50:59 437.485
AIST 2 28 Feb 19:51:07 19:55:03 34° 313° (NW) 19:59:01 435.215
Oscar 11 28 Feb 19:51:15 19:53:43 16° 64° (ENE) 19:56:21 145.826/435.025
O/OREOS (USA 219) 28 Feb 19:55:45 20:00:20 67° 249° (WSW) 20:04:52 437.305
DELFI C3 28 Feb 20:02:25 20:04:37 15° 65° (ENE) 20:06:58 145.870
BEESAT 2 28 Feb 20:09:07 20:11:21 14° 325° (NW) 20:13:29 435.950
DX 1 28 Feb 20:11:46 20:13:59 14° 62° (ENE) 20:16:22 434.975-435.025
PCSat 28 Feb 20:13:10 20:16:50 19° 107° (ESE) 20:20:42 145.827
AAUSAT CUBESAT 2 28 Feb 20:14:11 20:18:10 49° 73° (ENE) 20:22:13 437.432
DOVE 4 28 Feb 20:14:21 20:19:29 66° 75° (ENE) 20:24:25 437.250
COMPASS 1 28 Feb 20:14:50 20:18:54 58° 74° (ENE) 20:23:01 437.405
AIST 1 28 Feb 20:16:20 20:17:05 10° 276° (W) 20:17:35
CUBESAT XI-V 28 Feb 20:28:20 20:31:01 15° 298° (WNW) 20:33:33 437.345
FUNcube-1 28 Feb 20:30:23 20:33:31 20° 67° (ENE) 20:36:43 145.935
ZACube-1 28 Feb 20:30:43 20:33:55 21° 67° (ENE) 20:37:09 437.345
PHONESAT 2.4 28 Feb 20:31:33 20:34:59 40° 169° (S) 20:38:26 2401.200-2431.200
CANX-2 28 Feb 20:38:23 20:42:28 48° 261° (W) 20:46:35 2200.000
SEEDS 28 Feb 20:38:44 20:42:53 62° 259° (W) 20:47:03 437.485
CINEMA 3 28 Feb 20:39:46 20:44:33 64° 74° (ENE) 20:49:08 145.822/145.860
UKube-1 28 Feb 20:42:42 20:46:17 26° 67° (ENE) 20:49:58 .
UWE-3 28 Feb 20:43:48 20:47:47 33° 70° (ENE) 20:51:43 435.000/436.395/437.385
VERMONT LUNAR 28 Feb 20:44:04 20:47:27 48° 178° (S) 20:50:50 437.305
BRITE-PL 28 Feb 20:50:10 20:55:18 34° 265° (W) 21:00:14 437.365/2234.400
HUMSAT D 28 Feb 20:52:26 20:55:15 18° 66° (ENE) 20:58:09 437.325/437.525
CUTE 1.7 + AOD 2 28 Feb 20:57:42 21:01:31 33° 264° (W) 21:05:20 437.475
GONETS M04 28 Feb 20:58:20 21:04:57 26° 82° (E) 21:11:51
GOMX 1 28 Feb 21:06:56 21:11:47 32° 265° (W) 21:16:25 467.674
HO-68 28 Feb 21:11:43 21:18:13 36° 264° (W) 21:24:40 435.675
50 SAT 28 Feb 21:12:59 21:15:54 20° 67° (ENE) 21:18:53 437.505
CUBEBUG 2 28 Feb 21:15:52 21:20:26 86° 76° (ENE) 21:24:51 437.445
STRAND 1 28 Feb 21:17:44 21:19:24 11° 303° (WNW) 21:20:48 437.568
Oscar 11 28 Feb 21:25:17 21:29:31 55° 260° (W) 21:33:45 145.826/435.025
DELFI C3 28 Feb 21:35:32 21:39:28 51° 261° (W) 21:43:25 145.870
AISAT 28 Feb 21:38:25 21:42:40 43° 71° (ENE) 21:46:58 437.250
DX 1 28 Feb 21:45:24 21:49:46 66° 258° (WSW) 21:54:10 434.975-435.025
VELOX 1 28 Feb 21:48:55 21:53:16 54° 73° (ENE) 21:57:41 145.980
CUBEBUG 1 28 Feb 21:50:30 21:54:07 25° 67° (ENE) 21:57:49 437.445
AAUSAT CUBESAT 2 28 Feb 21:51:47 21:54:12 15° 271° (W) 21:56:27 437.432
COMPASS 1 28 Feb 21:53:10 21:55:05 13° 272° (W) 21:56:48 437.405
DOVE 4 28 Feb 21:54:25 21:57:43 16° 271° (W) 22:00:42 437.250
PCSat 28 Feb 21:54:25 21:59:48 65° 304° (NW) 22:05:14 145.827
ESTCUBE 1 28 Feb 21:56:26 22:00:25 32° 68° (ENE) 22:04:28 437.505/2401.250
FUNcube-1 28 Feb 22:05:28 22:09:39 41° 262° (W) 22:13:45 145.935
ZACube-1 28 Feb 22:05:54 22:10:05 40° 262° (W) 22:14:10 437.345
PHONESAT 2.4 28 Feb 22:09:41 22:13:12 47° 186° (S) 22:16:41 2401.200-2431.200
UNISAT 6 28 Feb 22:10:06 22:13:28 23° 93° (E) 22:16:57 437.425
UKube-1 28 Feb 22:18:28 22:22:23 31° 264° (W) 22:26:15 .
CINEMA 3 28 Feb 22:19:27 22:22:12 15° 271° (W) 22:24:41 145.822/145.860
UWE-3 28 Feb 22:20:41 22:24:24 25° 266° (W) 22:27:58 435.000/436.395/437.385
VERMONT LUNAR 28 Feb 22:21:54 22:25:06 34° 195° (SSW) 22:28:16 437.305
NANOSAT C BR1 28 Feb 22:24:42 22:27:34 18° 91° (E) 22:30:32 145.865
HUMSAT D 28 Feb 22:26:43 22:30:46 43° 262° (W) 22:34:46 437.325/437.525
SPROUT 28 Feb 22:32:14 22:35:08 18° 65° (ENE) 22:38:10 437.525
TIGRISAT 28 Feb 22:35:50 22:39:53 41° 98° (E) 22:43:58 435.000
TISAT 1 28 Feb 22:43:42 22:46:56 22° 66° (ENE) 22:50:15 437.305
50 SAT 28 Feb 22:47:03 22:50:44 34° 263° (W) 22:54:23 437.505
ANTELSAT 28 Feb 22:48:03 22:52:18 58° 101° (E) 22:56:34 437.575/2403.000
GONETS M04 28 Feb 22:52:27 23:01:07 70° 282° (WNW) 23:09:48
RS-15 28 Feb 22:55:43 23:05:22 40° 110° (ESE) 23:15:20 29.354- 29.394
QB50P1 28 Feb 22:56:09 23:00:08 39° 98° (E) 23:04:06 145.935-145.965
QB50P2 28 Feb 22:59:09 23:03:12 43° 98° (E) 23:07:14 145.880/145.840
DUCHIFAT 1 28 Feb 23:16:07 23:20:20 65° 101° (E) 23:24:30 145.980
AISAT 28 Feb 23:16:12 23:19:32 20° 268° (W) 23:22:46 437.250
BUGSAT 1 28 Feb 23:18:00 23:22:06 50° 100° (E) 23:26:07 437.445
CUSAT 1 28 Feb 23:18:30 23:23:15 23° 94° (E) 23:27:20 437.405
CUBEBUG 1 28 Feb 23:26:20 23:30:23 33° 264° (W) 23:34:25 437.445
VELOX 1 28 Feb 23:27:26 23:30:15 16° 270° (W) 23:32:54 145.980
ITUPSAT 1 28 Feb 23:32:52 23:35:11 14° 60° (ENE) 23:37:42 437.325
ESTCUBE 1 28 Feb 23:33:27 23:37:20 27° 266° (W) 23:41:11 437.505/2401.250
POLYITAN 1 28 Feb 23:33:45 23:38:01 78° 285° (WNW) 23:42:13 437.675
POPSAT HIP 1 28 Feb 23:35:25 23:39:40 76° 285° (WNW) 23:43:52 437.405
PCSat 28 Feb 23:41:18 23:44:23 15° 326° (NNW) 23:47:20 145.827
